When you browse on this site, cookies collect data to enhance your experience and personalize the content and advertising you see.
Visit our Privacy Policy to learn more. By continuing to use the site, you agree to this use of cookies and data.
  • In Lithuania
  • List of Countries
  • For 7 days
  • Water Temperature
  • Satellite Maps
  • Weather Map
  • Weather Widgets
  • user-avatar
    Login

    Hourly Weather Boyary

    Today, 18 April, Thursday

    Time Temperature Precipitation Wind Pressure Humidity
    00:00 +8°C° 0 mm 2 mps 759 mmHg 77%
    01:00 +7°C° 0 mm 2 mps 760 mmHg 80%
    02:00 +8°C° 0 mm 1 mps 760 mmHg 79%
    03:00 +7°C° 0 mm 1 mps 760 mmHg 81%
    04:00 +6°C° 0 mm 0 mps 760 mmHg 82%
    05:00 +6°C° 0 mm 0 mps 760 mmHg 84%
    06:00 +7°C° 0 mm 0 mps 760 mmHg 77%
    07:00 +10°C° 0 mm 1 mps 760 mmHg 71%
    08:00 +12°C° 0 mm 1 mps 761 mmHg 63%
    09:00 +13°C° 0 mm 2 mps 761 mmHg 57%
    10:00 +15°C° 0 mm 2 mps 761 mmHg 51%
    11:00 +16°C° 0 mm 3 mps 760 mmHg 46%
    12:00 +17°C° 0 mm 3 mps 760 mmHg 43%
    13:00 +18°C° 0 mm 3 mps 760 mmHg 40%
    14:00 +19°C° 0 mm 4 mps 759 mmHg 37%
    15:00 +18°C° 0 mm 4 mps 759 mmHg 39%
    16:00 +18°C° 0 mm 4 mps 758 mmHg 40%
    17:00 +17°C° 0 mm 5 mps 758 mmHg 42%
    18:00 +15°C° 0 mm 4 mps 758 mmHg 48%
    19:00 +13°C° 0 mm 4 mps 758 mmHg 53%
    20:00 +11°C° 0 mm 3 mps 758 mmHg 59%
    21:00 +11°C° 0 mm 3 mps 758 mmHg 59%
    22:00 +10°C° 0 mm 3 mps 758 mmHg 60%
    23:00 +8°C° 0 mm 4 mps 759 mmHg 60%

    Tomorrow, 19 April, Friday

    Time Temperature Precipitation Wind Pressure Humidity
    00:00 +7°C° 0 mm 4 mps 759 mmHg 63%
    01:00 +8°C° 0 mm 3 mps 759 mmHg 65%
    02:00 +7°C° 0 mm 3 mps 759 mmHg 67%
    03:00 +5°C° 0 mm 3 mps 760 mmHg 70%
    04:00 +5°C° 0 mm 3 mps 760 mmHg 73%
    05:00 +4°C° 0 mm 3 mps 760 mmHg 75%
    06:00 +5°C° 0 mm 4 mps 760 mmHg 68%
    07:00 +7°C° 0 mm 5 mps 760 mmHg 62%
    08:00 +8°C° 0 mm 5 mps 761 mmHg 55%
    09:00 +9°C° 0 mm 5 mps 761 mmHg 50%
    10:00 +10°C° 0 mm 5 mps 761 mmHg 45%
    11:00 +13°C° 0 mm 5 mps 761 mmHg 40%
    12:00 +13°C° 0 mm 5 mps 761 mmHg 39%
    13:00 +14°C° 0 mm 5 mps 761 mmHg 37%
    14:00 +15°C° 0 mm 5 mps 760 mmHg 36%
    15:00 +14°C° 0 mm 4 mps 760 mmHg 37%
    16:00 +14°C° 0 mm 4 mps 760 mmHg 38%
    17:00 +14°C° 0 mm 4 mps 760 mmHg 39%
    18:00 +12°C° 0 mm 3 mps 760 mmHg 44%
    19:00 +11°C° 0 mm 3 mps 760 mmHg 49%
    20:00 +9°C° 0 mm 2 mps 760 mmHg 54%
    21:00 +8°C° 0 mm 2 mps 760 mmHg 56%
    22:00 +9°C° 0 mm 1 mps 760 mmHg 58%
    23:00 +8°C° 0 mm 1 mps 760 mmHg 59%

    Day after tomorrow, 20 April, Saturday

    Time Temperature Precipitation Wind Pressure Humidity
    00:00 +8°C° 0 mm 1 mps 760 mmHg 60%
    01:00 +7°C° 0 mm 1 mps 760 mmHg 62%
    02:00 +6°C° 0 mm 0 mps 760 mmHg 63%
    03:00 +7°C° 0 mm 1 mps 760 mmHg 64%
    04:00 +7°C° 0 mm 1 mps 760 mmHg 65%
    05:00 +6°C° 0 mm 1 mps 759 mmHg 67%
    06:00 +8°C° 0 mm 1 mps 759 mmHg 63%
    07:00 +9°C° 0 mm 1 mps 759 mmHg 59%
    08:00 +10°C° 0 mm 2 mps 759 mmHg 56%
    09:00 +12°C° 0 mm 2 mps 759 mmHg 51%
    10:00 +14°C° 0 mm 2 mps 759 mmHg 47%
    11:00 +15°C° 0 mm 2 mps 758 mmHg 43%
    12:00 +15°C° 0 mm 2 mps 758 mmHg 43%
    13:00 +16°C° 0 mm 2 mps 757 mmHg 42%
    14:00 +16°C° 0 mm 2 mps 757 mmHg 42%
    15:00 +16°C° 0.2 mm 2 mps 757 mmHg 44%
    16:00 +15°C° 0.2 mm 2 mps 756 mmHg 47%
    17:00 +15°C° 0.2 mm 2 mps 756 mmHg 49%
    18:00 +14°C° 0.1 mm 1 mps 756 mmHg 56%
    19:00 +12°C° 0.1 mm 1 mps 756 mmHg 62%
    20:00 +11°C° 0.1 mm 1 mps 756 mmHg 68%
    21:00 +10°C° 0 mm 1 mps 756 mmHg 71%
    22:00 +10°C° 0 mm 1 mps 755 mmHg 75%
    23:00 +9°C° 0 mm 1 mps 755 mmHg 78%

    21 April, Sunday

    Time Temperature Precipitation Wind Pressure Humidity
    00:00 +9°C° 0 mm 1 mps 755 mmHg 82%
    01:00 +8°C° 0 mm 1 mps 755 mmHg 85%
    02:00 +8°C° 0 mm 1 mps 755 mmHg 89%
    03:00 +8°C° 0.2 mm 1 mps 754 mmHg 90%
    04:00 +8°C° 0.2 mm 1 mps 754 mmHg 90%
    05:00 +8°C° 0.2 mm 1 mps 754 mmHg 91%
    06:00 +9°C° 0.3 mm 1 mps 754 mmHg 88%
    07:00 +10°C° 0.3 mm 1 mps 754 mmHg 86%
    08:00 +10°C° 0.3 mm 1 mps 754 mmHg 83%
    09:00 +11°C° 0.8 mm 1 mps 753 mmHg 76%
    10:00 +12°C° 0.8 mm 2 mps 753 mmHg 70%
    11:00 +14°C° 0.8 mm 2 mps 753 mmHg 64%
    12:00 +14°C° 0.5 mm 2 mps 753 mmHg 62%
    13:00 +15°C° 0.5 mm 2 mps 753 mmHg 59%
    14:00 +15°C° 0.5 mm 2 mps 752 mmHg 57%
    15:00 +15°C° 0.2 mm 2 mps 752 mmHg 57%
    16:00 +15°C° 0.2 mm 2 mps 752 mmHg 57%
    17:00 +15°C° 0.2 mm 2 mps 752 mmHg 57%
    18:00 +14°C° 0.6 mm 2 mps 752 mmHg 65%
    19:00 +12°C° 0.6 mm 2 mps 753 mmHg 72%
    20:00 +10°C° 0.6 mm 3 mps 753 mmHg 80%
    21:00 +9°C° 0 mm 3 mps 753 mmHg 81%
    22:00 +8°C° 0 mm 4 mps 753 mmHg 81%
    23:00 +7°C° 0 mm 5 mps 754 mmHg 82%

    22 April, Monday

    Time Temperature Precipitation Wind Pressure Humidity
    00:00 +7°C° 0 mm 5 mps 754 mmHg 84%
    01:00 +6°C° 0 mm 5 mps 754 mmHg 86%
    02:00 +6°C° 0 mm 5 mps 754 mmHg 88%
    03:00 +5°C° 0 mm 5 mps 754 mmHg 90%
    04:00 +5°C° 0 mm 5 mps 755 mmHg 91%
    05:00 +5°C° 0 mm 5 mps 755 mmHg 93%
    06:00 +6°C° 0 mm 5 mps 755 mmHg 89%
    07:00 +7°C° 0 mm 6 mps 755 mmHg 86%
    08:00 +8°C° 0 mm 6 mps 756 mmHg 83%
    09:00 +9°C° 0.2 mm 6 mps 756 mmHg 76%
    10:00 +11°C° 0.2 mm 6 mps 756 mmHg 70%
    11:00 +12°C° 0.2 mm 7 mps 757 mmHg 63%
    12:00 +14°C° 0.4 mm 7 mps 757 mmHg 59%
    13:00 +14°C° 0.4 mm 7 mps 757 mmHg 54%
    14:00 +15°C° 0.4 mm 7 mps 756 mmHg 50%
    15:00 +15°C° 0.1 mm 7 mps 757 mmHg 50%
    16:00 +15°C° 0.1 mm 6 mps 757 mmHg 50%
    17:00 +15°C° 0.1 mm 6 mps 757 mmHg 51%
    18:00 +13°C° 0 mm 6 mps 757 mmHg 56%
    19:00 +12°C° 0 mm 5 mps 757 mmHg 61%
    20:00 +10°C° 0 mm 4 mps 758 mmHg 66%
    21:00 +9°C° 0 mm 5 mps 758 mmHg 65%
    22:00 +8°C° 0 mm 5 mps 759 mmHg 65%
    23:00 +8°C° 0 mm 5 mps 759 mmHg 65%

    23 April, Tuesday

    Time Temperature Precipitation Wind Pressure Humidity
    00:00 +7°C° 0 mm 5 mps 759 mmHg 67%
    01:00 +7°C° 0 mm 4 mps 759 mmHg 68%
    02:00 +6°C° 0 mm 4 mps 759 mmHg 70%
    03:00 +6°C° 0 mm 4 mps 759 mmHg 71%
    04:00 +5°C° 0 mm 4 mps 759 mmHg 72%
    05:00 +5°C° 0 mm 4 mps 760 mmHg 73%
    06:00 +6°C° 0 mm 5 mps 760 mmHg 68%
    07:00 +8°C° 0 mm 6 mps 760 mmHg 62%
    08:00 +9°C° 0 mm 6 mps 760 mmHg 57%
    09:00 +11°C° 0 mm 7 mps 760 mmHg 51%
    10:00 +12°C° 0 mm 7 mps 760 mmHg 46%
    11:00 +15°C° 0 mm 8 mps 760 mmHg 41%
    12:00 +15°C° 0 mm 8 mps 760 mmHg 40%
    13:00 +16°C° 0 mm 7 mps 759 mmHg 39%
    14:00 +16°C° 0 mm 7 mps 759 mmHg 38%
    15:00 +16°C° 0 mm 7 mps 759 mmHg 40%
    16:00 +16°C° 0 mm 7 mps 758 mmHg 42%
    17:00 +16°C° 0 mm 7 mps 758 mmHg 44%
    18:00 +14°C° 0 mm 6 mps 758 mmHg 47%
    19:00 +13°C° 0 mm 6 mps 758 mmHg 51%
    20:00 +10°C° 0 mm 5 mps 758 mmHg 55%
    21:00 +10°C° 0 mm 5 mps 758 mmHg 56%
    22:00 +9°C° 0 mm 5 mps 758 mmHg 57%
    23:00 +9°C° 0 mm 5 mps 759 mmHg 59%
    Show more